Location: Unspecified
(48.5670°N, 0.0000°E)
Time: 23:48:46
(UTC+00:00)

Transit 4A - Pass Details

Date: 02 September 2019
Orbit: 865 x 980 km, 66.8° (Epoch: 19 September)

Event Time Altitude Azimuth Distance (km) Brightness Sun altitude
Rises 23:14:01 0° 325° (NW) 3,643 11.9 -32.8°
Reaches altitude 10° 23:16:42 10° 331° (NNW) 2,679 11.1 -32.9°
Enters shadow 23:22:29 49° 37° (NE) 1,184 8.5 -33.1°
